sat.trackr.live / text

‹ back to catalog

LKW-1

NORAD 43034 · 2017-077A

PAYLOAD ACTIVE UNKNOWN

§ Identity

Operator
Country
PRC
Launch date
2017-12-03
Launch site
JSC
Launch vehicle
Mass (kg)
RCS (m²)

External: N2YO · Heavens-Above · Gunter

§ Orbital elements

Epoch: 2026-05-25T04:18:40.387968Z

Period
94.51 min
Inclination
97.1004°
Eccentricity
0.0001546
Mean motion
15.23581090 rev/d
Perigee alt
494.0 km
Apogee alt
496.1 km
Semi-major
6,873.2 km
B*
1.4800e-4
RAAN
180.6374°
Arg perigee
107.4612°
Mean anomaly
252.6795°
Rev number
47,119

§ Raw data

LKW-11 43034U 17077A   26145.17963412  .00003474  00000+0  14800-3 0  99902 43034  97.1004 180.6374 0001546 107.4612 252.6795 15.23581090471195

JSON: /api/v1/satellites/43034 · /tle

For live sub-satellite position, see the globe view (requires WebGL).

§ Visibility from observer

Set your observer location to see the next 7 days of passes ≥ 10°. The values pass through the URL so the page stays shareable.

No JS? Fill the form by hand. The geolocation button needs JavaScript.

§ Radio — SatNOGS DB

ModeDescriptionDownlinkUplink
FM S-band telemetry 2.207 GHz

1 transmitter · refreshed weekly from db.satnogs.org